Change the Weather History Date:

Wednesday, May 1, 2013

  Actual Average Record
Temperature  
Mean Temperature 60 °F -  
Max Temperature 66 °F 76 °F 91 °F (2007)
Min Temperature 53 °F 52 °F 40 °F (1963)
Degree Days  
Heating Degree Days 6    
Growing Degree Days 10 (Base 50)    
Moisture  
Dew Point 53 °F    
Average Humidity 77    
Maximum Humidity 94    
Minimum Humidity 63    
Precipitation  
Precipitation 0.00 in - - ()
Sea Level Pressure  
Sea Level Pressure 30.24 in    
Wind  
Wind Speed 6 mph (NE)    
Max Wind Speed 15 mph    
Max Gust Speed 22 mph    
Visibility 10 miles    
Events      
Averages and records for this station are not official NWS values.
T = Trace of Precipitation, MM = Missing Value Source: NWS Daily Summary

Daily Weather History Graph

Daily Weather History Graph

Search for Another Location

Airport or City:

Trip Planner

Search our weather history database for the weather conditions in past years. The results will help you decide how hot, cold, wet, or windy it might be!

Date:

Astronomy

May. 01, 2013 Rise Set
Actual Time 6:33 AM EDT 8:12 PM EDT
Civil Twilight 6:05 AM EDT 8:39 PM EDT
Nautical Twilight 5:32 AM EDT 9:13 PM EDT
Astronomical Twilight 4:58 AM EDT 9:47 PM EDT
Moon 1:20 AM EDT (5/1) 12:09 PM EDT (5/1)
Length of Visible Light 14h 34m
Length of Day
13h 39m
Waning Gibbous, 59% of the Moon is Illuminated
May 1
Waning Gibbous
May 2
Last Quarter
May 9
New
May 18
First Quarter
May 25
Full

Hourly Weather History & Observations

Time (EDT) Temp. Dew Point Humidity Pressure Visibility Wind Dir Wind Speed Gust Speed Precip Events Conditions
12:53 AM 55.9 °F 53.1 °F 90% 30.17 in 10.0 mi Calm Calm - N/A   Clear
1:53 AM 54.0 °F 52.0 °F 93% 30.16 in 10.0 mi Calm Calm - N/A   Clear
2:53 AM 54.0 °F 51.1 °F 90% 30.16 in 10.0 mi Calm Calm - N/A   Clear
3:53 AM 54.0 °F 51.1 °F 90% 30.16 in 10.0 mi Calm Calm - N/A   Mostly Cloudy
4:41 AM 53.6 °F 51.8 °F 94% 30.21 in 10.0 mi NE 4.6 mph - N/A   Mostly Cloudy
5:53 AM 55.0 °F 52.0 °F 89% 30.17 in 10.0 mi Calm Calm - N/A   Overcast
6:53 AM 55.9 °F 52.0 °F 87% 30.19 in 10.0 mi ENE 8.1 mph - N/A   Overcast
7:00 AM 55.4 °F 51.8 °F 88% 30.24 in 10.0 mi NE 8.1 mph - N/A   Overcast
8:16 AM 57.2 °F 51.8 °F 82% 30.26 in 10.0 mi NNE 6.9 mph - N/A   Overcast
8:32 AM 57.2 °F 51.8 °F 82% 30.26 in 10.0 mi NNE 10.4 mph - N/A   Overcast
8:53 AM 59.0 °F 52.0 °F 78% 30.23 in 10.0 mi NE 6.9 mph - N/A   Overcast
9:16 AM 59.0 °F 51.8 °F 77% 30.27 in 10.0 mi NNE 9.2 mph - N/A   Overcast
9:53 AM 60.1 °F 52.0 °F 75% 30.23 in 10.0 mi North 8.1 mph - N/A   Overcast
10:21 AM 60.8 °F 51.8 °F 72% 30.28 in 10.0 mi NNE 6.9 mph - N/A   Overcast
10:53 AM 63.0 °F 53.1 °F 70% 30.25 in 10.0 mi NNE 9.2 mph 16.1 mph N/A   Overcast
11:29 AM 62.6 °F 51.8 °F 68% 30.30 in 10.0 mi NE 10.4 mph - N/A   Mostly Cloudy
11:53 AM 64.9 °F 53.1 °F 65% 30.25 in 10.0 mi ENE 9.2 mph - N/A   Overcast
12:01 PM 64.4 °F 53.6 °F 68% 30.29 in 10.0 mi NE 10.4 mph 16.1 mph N/A   Overcast
12:53 PM 64.0 °F 52.0 °F 65% 30.24 in 10.0 mi ENE 11.5 mph - N/A   Overcast
1:02 PM 64.4 °F 53.6 °F 68% 30.27 in 10.0 mi ENE 13.8 mph 18.4 mph N/A   Overcast
1:09 PM 64.4 °F 51.8 °F 64% 30.27 in 10.0 mi ENE 10.4 mph 20.7 mph N/A   Overcast
1:17 PM 62.6 °F 51.8 °F 68% 30.27 in 10.0 mi ENE 13.8 mph 21.9 mph N/A   Overcast
1:33 PM 66.2 °F 53.6 °F 64% 30.26 in 10.0 mi ENE 15.0 mph 21.9 mph N/A   Overcast
1:53 PM 64.9 °F 53.1 °F 65% 30.22 in 10.0 mi NE 11.5 mph 19.6 mph N/A   Overcast
2:53 PM 66.0 °F 53.1 °F 63% 30.22 in 10.0 mi ENE 10.4 mph 19.6 mph N/A   Overcast
3:53 PM 64.9 °F 53.1 °F 65% 30.22 in 10.0 mi ENE 4.6 mph - N/A   Overcast
4:24 PM 62.6 °F 53.6 °F 72% 30.26 in 10.0 mi NE 8.1 mph 17.3 mph 0.00 in   Overcast
5:53 PM 62.1 °F 54.0 °F 75% 30.22 in 10.0 mi NE 10.4 mph - N/A   Overcast
7:03 PM 60.8 °F 53.6 °F 77% 30.26 in 10.0 mi ENE 8.1 mph - N/A   Overcast
7:16 PM 60.8 °F 53.6 °F 77% 30.26 in 10.0 mi ENE 5.8 mph - N/A   Overcast
7:25 PM 60.8 °F 53.6 °F 77% 30.26 in 10.0 mi ENE 8.1 mph - N/A   Overcast
7:53 PM 61.0 °F 54.0 °F 78% 30.23 in 10.0 mi ENE 8.1 mph - N/A   Overcast
8:53 PM 60.1 °F 54.0 °F 80% 30.24 in 10.0 mi ENE 5.8 mph - N/A   Overcast
9:26 PM 60.8 °F 53.6 °F 77% 30.28 in 10.0 mi ENE 6.9 mph - N/A   Overcast
9:35 PM 60.8 °F 53.6 °F 77% 30.29 in 10.0 mi ENE 8.1 mph - N/A   Overcast
9:53 PM 60.1 °F 54.0 °F 80% 30.25 in 10.0 mi ENE 9.2 mph 16.1 mph N/A   Overcast
10:08 PM 60.8 °F 53.6 °F 77% 30.29 in 10.0 mi ENE 11.5 mph 20.7 mph N/A   Overcast
10:37 PM 59.0 °F 53.6 °F 82% 30.30 in 10.0 mi ENE 10.4 mph - N/A   Overcast
10:53 PM 57.9 °F 53.1 °F 84% 30.26 in 10.0 mi ENE 11.5 mph 18.4 mph N/A   Overcast
11:53 PM 57.0 °F 53.1 °F 87% 30.27 in 10.0 mi NE 9.2 mph - N/A   Overcast